Location: Boiro
(42.6475°N, 8.8834°W)
Time: 04:09:43
(UTC+02:00)

ITAMSAT 1 - Visible Passes

Search period start: 18 August 2022 00:00
Search period end: 28 August 2022 00:00
Orbit: 784 x 796 km, 98.9° (Epoch: 16 August)

Date Brightness Start Highest point End Pass type
(mag) Time Alt. Az. Time Alt. Az. Time Alt. Az.
18 Aug 9.8 22:42:20 10° SSW 22:46:38 26° W 22:50:59 10° NW visible
19 Aug 8.7 22:11:52 10° S 22:16:54 48° W 22:21:58 10° NNW visible
20 Aug 10.6 23:26:14 10° WSW 23:27:26 11° W 23:28:37 10° WNW visible
21 Aug 10.1 22:53:37 10° SW 22:57:31 21° W 23:01:25 10° NW visible
22 Aug 9.1 22:22:52 10° SSW 22:27:43 38° W 22:32:36 10° NNW visible
23 Aug 8.0 21:52:51 10° S 21:58:04 72° WSW 22:03:19 10° NNW visible
24 Aug 10.3 23:05:05 10° SW 23:08:24 17° W 23:11:43 10° NW visible
25 Aug 9.5 22:33:58 10° SSW 22:38:34 31° W 22:43:11 10° NW visible
26 Aug 8.4 22:03:43 10° S 22:08:52 58° W 22:14:02 10° NNW visible
27 Aug 10.4 23:16:49 10° WSW 23:19:17 13° W 23:21:47 10° WNW visible
